[[{"header":{"parameterUnit":"m.s-1","parameterCategory":1,"la1":30.2991,"la2":30.254,"lo1":-89.0895,"lo2":-89.0444,"dy":0.0017,"dx":0.0017,"nx":28,"ny":28,"refTime":"2024-09-01T03:00:00:Z","depth":0,"parameterNumber":2,"parameterNumberName":"U-component_of_WINDS"},"data":[0,0,0,0,0,0,0,0,0,0,0,0,0,0,0,0,0,0,0,0,0,0,0,0,0,0,0,0,0,0,0,0,0,0,0,0,0,0,0,0,0,0,0,0,0,0,0,0,0,0,0,0,0,0,0,0,0,0,-1.6919,-1.6918,0,-1.6843,-1.6842,-1.6841,-1.6773,-1.6772,-1.6771,-1.6771,-1.6692,-1.669,-1.6689,0,0,0,0,0,0,0,0,0,0,0,0,0,-1.7006,-1.7005,-1.6919,-1.6918,-1.6917,-1.6843,-1.6842,-1.6841,-1.6773,-1.6772,-1.6771,-1.677,-1.6692,-1.669,-1.6689,0,0,0,0,0,0,0,0,0,0,0,0,0,-1.6953,-1.7004,-1.6919,-1.6874,-1.687,-1.6843,-1.6842,-1.6841,-1.6773,-1.6772,-1.6771,-1.677,-1.6692,-1.6691,-1.6689,-1.67,0,0,-1.6682,-1.6681,0,0,0,0,0,0,0,0,-1.6956,-1.695,-1.6882,-1.6877,-1.6872,-1.6816,-1.6844,-1.6794,-1.6774,-1.681,-1.6771,-1.6769,-1.6734,-1.6728,-1.6717,-1.6697,-1.6693,-1.6682,-1.6681,-1.668,-1.6679,0,0,0,0,0,0,0,-1.696,-1.6953,-1.6889,-1.6881,-1.6875,-1.6858,-1.6849,-1.6834,-1.678,-1.6807,-1.6801,-1.6793,-1.6731,-1.6719,-1.6714,-1.6692,-1.6682,-1.668,-1.6679,-1.6678,-1.668,-1.6681,0,0,0,0,0,0,-1.697,-1.6956,-1.6891,-1.6887,-1.6912,-1.6858,-1.6848,-1.6835,-1.678,-1.677,-1.6795,-1.6791,-1.6723,-1.6717,-1.6711,-1.6722,-1.668,-1.6678,-1.6677,-1.6678,-1.668,-1.6681,0,0,0,0,0,0,-1.6972,-1.6965,-1.6894,-1.692,-1.691,-1.6857,-1.6844,-1.6835,-1.6822,-1.677,-1.676,-1.6792,-1.6722,-1.6714,-1.6704,-1.6719,-1.6677,-1.6675,-1.6677,-1.6679,-1.6681,-1.6744,0,0,0,0,0,0,-1.6975,-1.6966,-1.697,-1.6921,-1.6909,-1.6888,-1.6845,-1.6834,-1.6819,-1.6813,-1.6766,-1.6756,-1.672,-1.6707,-1.6702,-1.6715,-1.6674,-1.6675,-1.6678,-1.668,-1.674,-1.6748,-1.6754,0,0,0,0,0,-1.6979,-1.699,-1.697,-1.6963,-1.6912,-1.6889,-1.6882,-1.6841,-1.6821,-1.6824,-1.6791,-1.6758,-1.6718,-1.6707,-1.67,-1.6713,-1.6674,-1.6677,-1.668,-1.6737,-1.6746,-1.6754,0,0,0,0,0,0,-1.7041,-1.6983,-1.696,-1.6956,-1.6929,-1.6878,-1.688,-1.6851,-1.6828,-1.6824,-1.6773,-1.6763,-1.6758,-1.6735,-1.6723,-1.6722,-1.6692,-1.6693,-1.6738,-1.6746,-1.6753,-1.6758,-1.6672,0,0,0,0,0,-1.7055,-1.7042,-1.6991,-1.6992,-1.698,-1.6933,-1.6921,-1.6892,-1.6861,-1.6849,-1.6815,-1.6786,-1.6767,-1.6755,-1.6735,-1.6737,-1.6726,-1.6743,-1.675,-1.6756,-1.6757,-1.6758,-1.6765,-1.669,-1.669,-1.669,0,0,-1.7083,-1.7049,-1.7043,-1.7004,-1.6979,-1.6967,-1.6923,-1.6911,-1.6902,-1.6846,-1.6835,-1.681,-1.6774,-1.6771,-1.6767,-1.6751,-1.6776,-1.6759,-1.6764,-1.6762,-1.6762,-1.6769,-1.6775,-1.6692,-1.6692,-1.6692,0,0,-1.7126,-1.7099,-1.7098,-1.7074,-1.7038,-1.7007,-1.7007,-1.6961,-1.6942,-1.6931,-1.689,-1.6878,-1.6846,-1.6822,-1.6806,-1.6845,-1.6813,-1.6839,-1.6875,-1.6876,-1.6882,-1.6887,-1.6901,-1.6907,-1.6841,-1.6842,-1.6842,0,-1.7165,-1.7144,-1.7101,-1.7092,-1.7077,-1.7028,-1.7027,-1.7006,-1.6964,-1.6955,-1.6937,-1.6897,-1.687,-1.6861,-1.6871,-1.6859,-1.6858,-1.6844,-1.6885,-1.6889,-1.6893,-1.6906,-1.6912,-1.6845,-1.6845,-1.6844,-1.6844,0,-1.7194,-1.718,-1.7184,-1.7146,-1.7131,-1.7126,-1.7083,-1.7073,-1.7046,-1.7017,-1.7007,-1.6973,-1.6945,-1.6941,-1.6914,-1.6929,-1.692,-1.6894,-1.6862,-1.6905,-1.6916,-1.692,-1.685,-1.6849,-1.6848,-1.6847,0,0,-1.7272,-1.7213,-1.7215,-1.7198,-1.7155,-1.7144,-1.7138,-1.7111,-1.7104,-1.7078,-1.7072,-1.7047,-1.7024,-1.7006,-1.6976,-1.6978,-1.7011,-1.6952,-1.695,-1.6964,-1.7027,-1.7046,-1.7052,-1.6991,-1.6992,-1.6993,-1.703,0,-1.7309,-1.7294,-1.7257,-1.7254,-1.7242,-1.7197,-1.7191,-1.7165,-1.7139,-1.7125,-1.7096,-1.7079,-1.705,-1.7039,-1.7038,-1.7007,-1.7023,-1.7004,-1.6985,-1.6985,-1.6995,-1.7058,-1.7078,-1.7114,-1.7034,-1.7035,-1.7035,0,-1.7348,-1.7326,-1.7323,-1.7283,-1.7276,-1.7272,-1.7246,-1.7233,-1.7203,-1.7184,-1.7165,-1.7133,-1.7124,-1.7096,-1.7084,-1.7072,-1.7063,-1.7047,-1.7047,-1.7043,-1.7012,-1.7056,-1.7125,-1.7131,-1.7042,-1.7041,-1.7041,0,-1.7407,-1.7376,-1.737,-1.7357,-1.731,-1.7308,-1.7288,-1.7257,-1.7244,-1.7222,-1.7214,-1.7191,-1.7178,-1.7161,-1.7124,-1.7106,-1.7116,-1.7084,-1.71,-1.7102,-1.7103,-1.7104,-1.7172,-1.7098,-1.7098,-1.7098,-1.7098,0,-1.7451,-1.7451,-1.7396,-1.7393,-1.7391,-1.7349,-1.7349,-1.7325,-1.7298,-1.7289,-1.7249,-1.7242,-1.7193,-1.7181,-1.7151,-1.7147,-1.7141,-1.7126,-1.7118,-1.7129,-1.7131,-1.7121,-1.7118,-1.7099,-1.7099,-1.7099,-1.7099,0,-1.7515,-1.7479,-1.7469,-1.7426,-1.7415,-1.7417,-1.738,-1.7375,-1.7347,-1.7337,-1.7332,-1.7289,-1.7273,-1.7234,-1.7207,-1.7187,-1.719,-1.7176,-1.7201,-1.7196,-1.7214,-1.7213,-1.7278,-1.7285,-1.7207,-1.7208,-1.7209,0,-1.7545,-1.7544,-1.7502,-1.7493,-1.7475,-1.7462,-1.745,-1.7409,-1.7398,-1.7364,-1.7364,-1.7345,-1.7327,-1.7302,-1.7269,-1.7248,-1.7233,-1.7258,-1.723,-1.7242,-1.7234,-1.7234,-1.7234,-1.7264,-1.7265,-1.7265,-1.7266,0,-1.7603,-1.7586,-1.7569,-1.7548,-1.7534,-1.7515,-1.7493,-1.7489,-1.7443,-1.7432,-1.7415,-1.7402,-1.7375,-1.7357,-1.7331,-1.7311,-1.7281,-1.7276,-1.7278,-1.7289,-1.7304,-1.7297,-1.7217,-1.7274,-1.7273,-1.7272,-1.7272,-1.7272,-1.7651,-1.7649,-1.7619,-1.7603,-1.7583,-1.7564,-1.7558,-1.7531,-1.7516,-1.7491,-1.7468,-1.7454,-1.7425,-1.7389,-1.7371,-1.736,-1.7344,-1.7348,-1.7349,-1.735,-1.7356,-1.7306,-1.7355,-1.7354,-1.7354,-1.7354,-1.7354,0,-1.7707,-1.7686,-1.7672,-1.7644,-1.7632,-1.7606,-1.7581,-1.7572,-1.7561,-1.7537,-1.7521,-1.7502,-1.7485,-1.7451,-1.7431,-1.7428,-1.7414,-1.7424,-1.7424,-1.742,-1.737,-1.737,-1.7436,-1.7436,-1.7436,-1.7436,-1.7436,-1.7436,-1.7735,-1.773,-1.7709,-1.7694,-1.7673,-1.766,-1.7648,-1.7631,-1.7612,-1.7593,-1.7579,-1.7557,-1.753,-1.7508,-1.7491,-1.7481,-1.7476,-1.749,-1.7477,-1.7431,-1.7423,-1.7415,-1.7415,-1.7489,-1.749,-1.7527,-1.7527,-1.7528]},{"header":{"parameterUnit":"m.s-1","parameterCategory":1,"la1":30.2991,"la2":30.254,"lo1":-89.0895,"lo2":-89.0444,"dy":0.0017,"dx":0.0017,"nx":28,"ny":28,"refTime":"2024-09-01T03:00:00:Z","depth":0,"parameterNumber":3,"parameterNumberName":"V-component_of_WINDS"},"data":[0,0,0,0,0,0,0,0,0,0,0,0,0,0,0,0,0,0,0,0,0,0,0,0,0,0,0,0,0,0,0,0,0,0,0,0,0,0,0,0,0,0,0,0,0,0,0,0,0,0,0,0,0,0,0,0,0,0,2.8446,2.8446,0,2.8483,2.8483,2.8484,2.8545,2.8547,2.8548,2.8549,2.8583,2.8583,2.8583,0,0,0,0,0,0,0,0,0,0,0,0,0,2.8426,2.8426,2.8446,2.8446,2.8447,2.8483,2.8483,2.8484,2.8545,2.8547,2.8548,2.8549,2.8583,2.8583,2.8583,0,0,0,0,0,0,0,0,0,0,0,0,0,2.8446,2.8426,2.8445,2.8482,2.8485,2.8483,2.8483,2.8484,2.8545,2.8547,2.8548,2.855,2.8583,2.8583,2.8583,2.8547,0,0,2.8582,2.8582,0,0,0,0,0,0,0,0,2.8444,2.8446,2.8476,2.8479,2.8483,2.8511,2.8489,2.8505,2.8544,2.8522,2.8549,2.8551,2.8558,2.856,2.8563,2.8548,2.855,2.8582,2.8582,2.8582,2.8582,0,0,0,0,0,0,0,2.8443,2.8445,2.846,2.8476,2.8481,2.8495,2.85,2.8492,2.853,2.8524,2.8529,2.8533,2.856,2.8563,2.8564,2.855,2.8582,2.8582,2.8582,2.8582,2.851,2.8508,0,0,0,0,0,0,2.8437,2.8443,2.8459,2.8461,2.8468,2.8494,2.85,2.85,2.853,2.8536,2.8531,2.8535,2.8562,2.8564,2.8565,2.8526,2.8582,2.8582,2.8582,2.8512,2.8509,2.8507,0,0,0,0,0,0,2.8436,2.8438,2.8458,2.8454,2.8457,2.8493,2.8493,2.85,2.8503,2.8535,2.8542,2.8527,2.8564,2.8566,2.8552,2.8528,2.8582,2.8581,2.8514,2.8511,2.8508,2.8446,0,0,0,0,0,0,2.8435,2.8437,2.8424,2.8453,2.8457,2.8443,2.8492,2.85,2.8503,2.8509,2.8533,2.8539,2.8565,2.8552,2.8551,2.8529,2.8581,2.8516,2.8512,2.8509,2.8451,2.8442,2.8434,0,0,0,0,0,2.8434,2.8404,2.8423,2.8424,2.8442,2.8442,2.8444,2.8476,2.8501,2.8488,2.8509,2.8538,2.8531,2.855,2.855,2.8527,2.8517,2.8513,2.8509,2.8454,2.8443,2.8434,0,0,0,0,0,0,2.8369,2.8408,2.843,2.8408,2.8421,2.8452,2.8437,2.8464,2.847,2.8475,2.8513,2.8518,2.8499,2.8512,2.8532,2.8494,2.8529,2.8525,2.8487,2.8477,2.8469,2.8466,2.8581,0,0,0,0,0,2.8353,2.835,2.8384,2.8362,2.8367,2.8401,2.8402,2.8426,2.8441,2.8446,2.8466,2.8478,2.8479,2.8479,2.8481,2.8453,2.8459,2.8437,2.8429,2.8422,2.8418,2.8405,2.8396,2.8494,2.8494,2.8494,0,0,2.8318,2.8339,2.8335,2.8349,2.8362,2.8359,2.8405,2.8399,2.8396,2.8445,2.8433,2.8448,2.8465,2.8444,2.8435,2.8453,2.8393,2.8417,2.8411,2.8411,2.84,2.8391,2.8382,2.8492,2.8492,2.8493,0,0,2.8253,2.8268,2.8252,2.8265,2.8285,2.8308,2.8303,2.8331,2.8343,2.8332,2.8369,2.8366,2.8366,2.8377,2.8383,2.8323,2.8351,2.8323,2.828,2.8267,2.8259,2.8253,2.8232,2.8224,2.8319,2.8318,2.8318,0,2.8207,2.8203,2.824,2.8232,2.8237,2.8283,2.8266,2.8277,2.8295,2.8298,2.8318,2.8321,2.8335,2.8318,2.8303,2.8306,2.8303,2.832,2.8258,2.8251,2.8246,2.8226,2.8218,2.8315,2.8315,2.8316,2.8316,0,2.8146,2.8143,2.8127,2.8146,2.815,2.8137,2.8172,2.8171,2.8195,2.8215,2.8204,2.8223,2.8231,2.8228,2.825,2.8214,2.8225,2.8251,2.8287,2.8232,2.8215,2.8208,2.831,2.8311,2.8312,2.8313,0,0,2.804,2.8081,2.8074,2.8084,2.811,2.8108,2.8098,2.8107,2.8106,2.8118,2.811,2.811,2.8135,2.8141,2.8165,2.8154,2.8106,2.8181,2.8182,2.8167,2.8068,2.8049,2.804,2.8125,2.8124,2.8123,2.8067,0,2.798,2.7966,2.7999,2.7977,2.7975,2.8019,2.8011,2.8025,2.8044,2.8045,2.8066,2.8066,2.8098,2.8102,2.8093,2.8114,2.8087,2.8118,2.8118,2.8117,2.8113,2.803,2.801,2.7956,2.806,2.8059,2.8058,0,2.7908,2.7919,2.7896,2.7925,2.7926,2.7917,2.7929,2.7929,2.7947,2.7962,2.7969,2.7998,2.799,2.8025,2.8014,2.8035,2.8037,2.8047,2.8046,2.8047,2.8084,2.8029,2.794,2.7932,2.8048,2.8049,2.805,0,2.7834,2.7842,2.783,2.7837,2.787,2.7864,2.7877,2.7897,2.79,2.791,2.7913,2.7921,2.7925,2.793,2.7961,2.7983,2.7947,2.7983,2.7958,2.7958,2.7948,2.7949,2.7858,2.7949,2.7949,2.7949,2.795,0,2.7764,2.7749,2.7798,2.779,2.7775,2.7813,2.7796,2.7814,2.7831,2.7828,2.7866,2.7862,2.7902,2.7902,2.7926,2.7914,2.7915,2.7926,2.7933,2.7923,2.7922,2.7925,2.7929,2.7947,2.7948,2.7948,2.7949,0,2.7678,2.771,2.77,2.7733,2.7741,2.7728,2.7756,2.7751,2.7773,2.7768,2.7769,2.7803,2.7806,2.7837,2.7845,2.7861,2.784,2.7853,2.7834,2.7838,2.7812,2.7814,2.772,2.771,2.7807,2.7806,2.7805,0,2.7631,2.7621,2.7653,2.7655,2.7667,2.7668,2.7672,2.771,2.7713,2.7733,2.7725,2.7731,2.7737,2.7739,2.7764,2.7771,2.7785,2.7752,2.7786,2.7777,2.7785,2.7785,2.7785,2.7744,2.7743,2.7742,2.7741,0,2.7545,2.7562,2.7568,2.7579,2.7584,2.7594,2.7607,2.7605,2.7647,2.7648,2.7652,2.7657,2.7667,2.7672,2.7684,2.7697,2.7726,2.773,2.7725,2.7715,2.7704,2.771,2.7814,2.7732,2.7733,2.7734,2.7734,2.7734,2.7478,2.7471,2.7493,2.7499,2.7513,2.7524,2.7521,2.7544,2.7548,2.756,2.7581,2.7582,2.7601,2.762,2.7631,2.7631,2.7648,2.764,2.7639,2.7636,2.7631,2.7704,2.7634,2.7634,2.7634,2.7634,2.7635,0,2.7394,2.7411,2.7416,2.7433,2.7437,2.7466,2.7482,2.7483,2.7484,2.75,2.7506,2.7511,2.7516,2.7543,2.7551,2.7547,2.756,2.7547,2.7548,2.7551,2.7615,2.7619,2.7537,2.7537,2.7537,2.7537,2.7537,2.7537,2.7351,2.7342,2.7361,2.7359,2.7376,2.7378,2.7385,2.7396,2.7409,2.7413,2.7419,2.7436,2.7456,2.7467,2.7473,2.7481,2.7482,2.7466,2.7477,2.7537,2.7546,2.7555,2.7559,2.7466,2.7465,2.7414,2.7413,2.7413]}]]